Probability
97 97 100 100 97 90 94 87 90 87 90 90 87 94 87 94 94 77 55 52 55 71 87 94 97 100 97 100 100 100 100 100 97 97 94 94 97 100 100 100 100 100 97
87 94 100 100 100 100 94 87 90 87 84 90 97 94 90 97 90 84 65 55 58 74 87 90 94 100 100 100 100 100 100 100 100 100 100 97 100 100 94 94 100 100 100
84 94 100 100 100 100 87 87 84 77 81 84 87 84 84 94 84 71 61 58 61 77 87 90 94 94 100 100 100 100 100 100 100 100 94 94 97 100 97 97 100 100 97
84 94 100 100 100 100 97 84 84 90 87 81 77 77 87 84 87 71 55 45 48 74 87 90 94 97 100 100 100 100 100 100 100 100 100 94 100 100 100 94 100 97 97
71 87 100 100 100 100 97 87 90 94 87 84 81 77 87 87 90 68 42 26 29 52 65 94 97 97 100 100 100 97 100 100 100 100 100 100 100 100 94 90 94 97 97
55 100 100 100 100 100 97 87 87 94 94 90 87 90 94 94 84 65 35 19 10 19 58 87 90 97 97 100 90 87 90 100 100 100 100 100 100 100 97 94 97 94 97
42 97 97 100 100 97 100 87 87 97 97 90 87 94 97 97 87 55 26 6 0 6 29 61 87 94 94 81 58 55 84 97 94 97 100 100 100 100 100 100 97 97 97
42 90 87 100 100 97 94 90 87 94 94 94 90 100 100 94 84 55 23 6 0 10 29 65 87 74 68 45 13 10 26 94 61 87 100 100 100 100 100 100 100 100 94
16 84 65 84 97 94 90 90 94 97 97 97 97 100 100 97 84 39 10 0 0 13 39 65 77 45 29 0 0 0 26 97 58 65 74 90 97 100 100 100 100 100 100
6 58 61 6 32 35 71 100 90 90 97 97 94 97 97 97 77 29 3 0 0 13 39 52 52 23 3 0 0 3 29 61 29 52 32 77 97 94 97 100 100 100 100
6 32 52 32 32 29 29 81 97 94 97 97 97 97 94 65 13 13 3 10 13 13 10 23 19 19 0 0 0 3 32 10 68 61 42 71 77 77 90 94 94 100 100
0 10 58 52 48 35 26 58 84 77 84 45 35 65 29 0 0 0 6 10 16 6 6 23 29 26 6 0 0 13 0 13 55 55 77 90 65 77 84 87 90 90 90
0 0 39 42 45 32 74 61 77 87 71 48 10 0 3 0 0 0 0 6 0 3 0 3 6 0 0 0 0 0 0 10 23 32 90 100 94 97 87 87 87 84 81
0 0 3 26 35 39 32 52 52 39 32 23 26 0 0 0 0 0 0 0 0 0 0 0 6 0 0 0 0 0 6 16 23 48 81 100 100 97 97 97 90 90 87
0 0 0 0 6 19 55 58 19 29 3 10 42 13 0 3 0 0 0 6 0 0 0 0 0 0 0 0 0 0 3 32 39 48 58 100 100 100 97 100 97 100 90
0 3 0 0 0 6 55 48 26 10 71 13 29 6 0 0 0 0 0 0 0 0 0 0 0 0 0 0 0 0 0 19 45 35 42 81 100 100 100 97 94 97 81
0 0 3 3 0 6 29 35 39 35 10 16 35 0 0 0 0 0 0 0 0 0 0 0 0 0 0 0 0 0 0 3 19 26 19 29 32 87 100 94 94 90 84
0 0 10 19 10 10 16 77 52 42 26 39 16 3 0 0 0 0 0 0 0 0 0 0 0 0 0 0 0 0 0 0 0 0 0 6 3 0 29 45 55 61 61
0 0 29 61 81 71 74 94 94 68 48 42 32 16 6 0 0 0 0 0 0 0 0 0 0 0 0 0 0 0 0 0 0 0 0 0 0 0 0 6 13 16 23
0 3 13 74 100 100 97 94 100 100 81 68 52 35 10 3 0 0 3 0 0 0 3 0 10 16 0 0 0 0 0 0 0 0 0 0 0 0 0 0 0 0 0
3 6 29 84 94 97 100 100 100 100 87 68 58 42 42 26 3 0 0 0 3 16 19 13 35 6 0 0 0 0 0 0 0 0 0 0 0 0 0 0 0 0 0
16 26 35 61 77 87 100 100 100 100 87 68 68 58 52 52 29 13 10 6 35 45 39 19 19 0 0 0 0 0 0 0 0 0 0 0 0 0 0 0 0 0 0
35 39 32 61 84 97 100 100 100 100 97 90 77 71 77 74 52 48 19 6 23 45 32 35 26 6 0 0 0 0 0 0 0 0 0 0 0 0 0 0 0 0 0
48 39 48 71 90 100 100 100 100 100 94 97 87 94 90 90 87 74 39 29 29 42 35 16 10 3 0 0 0 0 0 0 0 0 0 0 0 0 0 0 0 0 0
32 39 45 81 87 94 94 100 100 100 97 97 97 87 94 94 97 90 71 29 16 23 10 10 3 0 0 0 0 0 0 0 0 0 0 0 0 0 0 0 0 0 0
48 55 71 74 90 87 87 94 94 94 94 90 90 81 90 94 100 94 77 45 32 13 13 6 6 3 3 0 0 0 0 0 0 0 0 0 0 0 0 0 0 0 0
Height
5890 5889 5888 5887 5886 5885 5883 5882 5880 5879 5878 5877 5876 5876 5875 5874 5874 5873 5873 5872 5872 5872 5871 5871 5872 5873 5875 5878 5879 5881 5882 5882 5883 5884 5884 5885 5886 5888 5889 5890 5892 5894 5895
5890 5889 5889 5888 5886 5885 5883 5882 5880 5879 5877 5877 5876 5876 5875 5874 5873 5872 5872 5871 5871 5871 5870 5869 5869 5870 5873 5876 5878 5880 5881 5882 5883 5884 5884 5885 5886 5887 5888 5889 5890 5892 5894
5889 5889 5889 5888 5887 5885 5883 5882 5880 5878 5877 5876 5876 5875 5874 5873 5872 5872 5871 5871 5870 5870 5869 5868 5868 5869 5872 5874 5877 5879 5881 5882 5883 5884 5884 5885 5886 5887 5887 5888 5889 5891 5893
5889 5889 5889 5888 5887 5885 5884 5882 5880 5878 5877 5876 5875 5874 5874 5873 5872 5871 5871 5870 5870 5870 5869 5868 5868 5869 5870 5873 5876 5878 5880 5881 5882 5883 5884 5884 5885 5886 5887 5888 5889 5890 5891
5889 5889 5889 5888 5887 5885 5884 5882 5880 5878 5877 5875 5874 5873 5873 5872 5871 5871 5871 5870 5870 5870 5869 5869 5869 5869 5870 5872 5874 5877 5878 5880 5881 5882 5883 5883 5884 5886 5887 5888 5889 5890 5891
5888 5888 5888 5888 5887 5885 5884 5882 5880 5879 5877 5875 5874 5873 5872 5871 5870 5870 5870 5870 5870 5869 5869 5869 5869 5870 5870 5872 5874 5875 5877 5878 5879 5880 5882 5883 5884 5885 5887 5888 5889 5890 5891
5887 5887 5887 5887 5886 5885 5883 5882 5880 5878 5877 5875 5873 5872 5871 5870 5870 5869 5869 5869 5869 5869 5869 5869 5870 5870 5871 5872 5873 5874 5875 5876 5877 5879 5881 5882 5883 5884 5886 5887 5889 5890 5890
5885 5886 5886 5886 5885 5884 5883 5881 5879 5878 5876 5874 5873 5871 5870 5869 5868 5868 5868 5868 5868 5868 5869 5869 5869 5870 5871 5871 5872 5873 5874 5875 5876 5877 5879 5880 5882 5883 5885 5886 5888 5889 5889
5884 5885 5885 5885 5884 5883 5882 5880 5878 5877 5875 5873 5872 5870 5869 5867 5867 5867 5867 5867 5867 5867 5867 5868 5868 5869 5870 5871 5872 5872 5873 5874 5876 5877 5878 5880 5881 5882 5884 5885 5886 5887 5888
5883 5883 5884 5884 5883 5882 5881 5879 5877 5876 5874 5872 5871 5869 5867 5866 5865 5865 5865 5866 5866 5866 5866 5866 5866 5867 5868 5869 5870 5871 5872 5873 5875 5877 5878 5879 5880 5882 5883 5884 5885 5885 5886
5882 5882 5883 5882 5882 5881 5879 5878 5876 5874 5873 5871 5869 5868 5866 5865 5864 5863 5863 5864 5864 5864 5864 5864 5865 5865 5866 5867 5868 5870 5871 5872 5874 5875 5877 5878 5879 5881 5882 5883 5883 5884 5885
5880 5881 5881 5881 5880 5879 5878 5876 5874 5873 5871 5870 5868 5866 5865 5863 5862 5862 5862 5862 5862 5862 5862 5863 5863 5863 5864 5864 5865 5867 5869 5870 5871 5873 5875 5876 5878 5879 5880 5881 5882 5882 5883
5878 5879 5879 5879 5878 5877 5876 5874 5873 5871 5870 5868 5866 5865 5863 5862 5860 5860 5860 5859 5859 5860 5860 5861 5861 5861 5861 5862 5863 5864 5866 5867 5869 5871 5873 5874 5876 5877 5878 5879 5880 5881 5882
5876 5876 5876 5876 5876 5875 5873 5872 5871 5869 5868 5866 5865 5863 5861 5860 5859 5858 5858 5857 5857 5857 5858 5858 5858 5859 5859 5860 5861 5862 5863 5864 5866 5868 5870 5871 5873 5874 5875 5877 5878 5879 5880
5874 5873 5873 5873 5872 5872 5871 5870 5868 5867 5866 5865 5863 5862 5860 5858 5857 5856 5856 5855 5855 5855 5856 5856 5856 5857 5857 5858 5859 5859 5860 5861 5862 5865 5866 5868 5870 5871 5873 5874 5875 5876 5878
5871 5871 5870 5869 5869 5869 5868 5867 5866 5865 5864 5862 5861 5860 5858 5856 5855 5854 5853 5853 5853 5853 5853 5854 5854 5854 5855 5855 5856 5857 5857 5858 5859 5861 5863 5864 5866 5868 5869 5871 5872 5873 5875
5867 5867 5867 5866 5865 5865 5864 5863 5863 5862 5861 5860 5858 5857 5856 5854 5853 5852 5851 5850 5850 5850 5851 5851 5851 5852 5852 5853 5854 5854 5855 5855 5856 5857 5859 5861 5862 5864 5866 5867 5868 5870 5872
5863 5863 5863 5863 5862 5861 5860 5860 5859 5858 5857 5856 5855 5854 5853 5852 5851 5850 5848 5847 5847 5848 5848 5848 5849 5849 5850 5850 5851 5852 5852 5853 5853 5854 5855 5857 5859 5861 5862 5864 5865 5867 5869
5860 5859 5859 5859 5858 5857 5856 5856 5855 5854 5854 5853 5851 5850 5849 5849 5848 5847 5845 5845 5844 5845 5845 5845 5846 5847 5847 5847 5848 5849 5849 5850 5850 5851 5852 5854 5856 5857 5859 5861 5863 5865 5867
5856 5855 5854 5854 5854 5853 5852 5851 5851 5850 5850 5849 5848 5846 5846 5845 5845 5844 5842 5842 5842 5841 5842 5842 5842 5843 5844 5844 5845 5846 5847 5847 5847 5848 5849 5850 5852 5854 5856 5858 5861 5863 5865
5852 5851 5850 5849 5849 5849 5848 5847 5847 5846 5845 5845 5844 5843 5842 5841 5841 5840 5839 5838 5838 5838 5838 5838 5838 5839 5840 5841 5842 5843 5844 5845 5845 5845 5846 5847 5849 5851 5853 5856 5858 5861 5863
5848 5847 5846 5845 5844 5844 5843 5843 5842 5842 5841 5840 5839 5839 5838 5837 5836 5836 5835 5834 5834 5834 5834 5834 5834 5835 5835 5837 5838 5840 5841 5843 5843 5843 5844 5845 5846 5847 5850 5852 5855 5858 5860
5842 5842 5841 5841 5840 5839 5839 5838 5838 5837 5835 5835 5834 5833 5832 5831 5830 5830 5829 5829 5829 5829 5829 5830 5830 5831 5831 5832 5834 5836 5838 5839 5840 5841 5841 5842 5843 5845 5847 5849 5852 5855 5857
5836 5836 5836 5836 5836 5835 5834 5833 5832 5831 5830 5829 5827 5826 5825 5824 5823 5823 5823 5823 5823 5823 5823 5824 5825 5826 5826 5827 5829 5831 5834 5836 5837 5838 5840 5840 5842 5843 5844 5847 5849 5851 5854
5830 5831 5831 5831 5831 5830 5829 5828 5827 5826 5824 5823 5821 5820 5818 5817 5816 5815 5815 5816 5816 5817 5817 5818 5819 5820 5821 5822 5824 5826 5828 5831 5833 5835 5837 5838 5840 5841 5842 5844 5846 5848 5850
5824 5825 5826 5826 5826 5825 5824 5823 5822 5820 5818 5816 5815 5813 5811 5809 5808 5808 5807 5808 5809 5810 5811 5812 5813 5814 5815 5817 5818 5820 5823 5826 5829 5832 5833 5835 5837 5839 5840 5842 5844 5845 5847
Wind_Speed
3 4 7 10 12 13 14 14 13 11 9 8 7 7 7 7 6 6 5 5 5 6 7 8 13 17 18 16 12 10 8 6 4 5 6 6 6 8 10 12 13 14 12
2 3 6 9 12 13 14 14 13 12 10 8 7 7 7 7 7 7 5 4 4 4 4 5 9 16 19 18 15 12 10 7 5 5 5 5 5 5 6 9 12 14 14
4 3 6 9 12 13 14 13 13 13 11 9 7 7 7 8 8 8 6 5 4 3 3 2 5 12 18 19 17 14 11 9 7 6 6 6 6 5 4 6 8 11 13
6 4 5 8 11 12 13 12 12 13 12 10 8 8 8 9 8 8 6 5 4 4 3 1 3 8 15 18 18 16 13 11 10 9 8 8 7 6 5 5 6 8 11
7 5 5 7 10 11 12 11 11 12 13 11 9 9 9 9 8 7 6 6 5 4 3 2 2 5 11 15 17 17 16 15 13 11 10 9 7 7 5 4 4 5 8
7 6 5 6 8 10 11 11 11 12 13 12 10 10 10 9 8 7 6 6 5 4 3 2 1 3 7 12 14 16 17 17 16 15 13 10 9 8 5 4 3 3 6
8 7 5 6 7 9 10 10 11 11 12 12 11 10 10 10 9 7 6 6 6 5 3 2 2 3 5 8 11 12 14 15 16 16 15 12 10 9 6 5 4 4 5
8 7 6 6 7 9 9 10 11 12 12 13 13 12 11 11 9 8 7 7 6 6 5 5 5 5 6 7 8 9 11 13 14 14 13 11 10 9 6 5 5 6 7
9 8 6 6 7 8 9 9 11 12 12 13 14 13 13 12 11 9 8 8 7 7 7 7 8 8 9 9 10 10 10 11 12 12 11 9 7 6 5 6 6 7 8
8 8 7 7 7 8 8 9 11 12 13 14 15 15 14 13 12 11 9 9 8 8 8 8 9 11 12 12 12 12 12 12 12 12 11 9 7 7 7 7 7 8 8
8 8 8 8 8 8 8 9 11 12 14 15 16 15 15 14 13 12 11 10 10 9 9 9 10 11 13 14 14 15 15 15 15 15 14 12 11 10 9 9 9 8 9
7 8 9 9 9 9 9 10 11 12 13 14 15 15 15 14 14 13 12 11 11 10 10 9 10 12 13 14 15 16 16 17 17 17 16 15 14 12 11 10 10 9 9
8 9 10 11 11 11 11 11 12 13 14 14 15 16 15 15 14 13 12 12 12 11 10 10 10 12 14 15 15 16 17 18 20 19 18 18 16 15 13 12 11 11 11
10 11 12 13 12 13 13 13 13 13 14 15 16 16 16 16 14 14 13 13 12 12 11 10 11 12 13 14 14 15 17 18 20 20 20 20 18 17 15 14 13 12 13
12 13 14 14 14 14 14 14 14 14 14 14 15 16 16 16 15 15 15 13 13 13 12 11 11 11 12 14 14 15 16 18 19 20 20 21 20 19 17 16 15 14 15
13 13 14 15 14 14 15 15 15 15 15 15 15 15 16 16 16 16 16 15 13 13 13 12 11 12 12 14 14 14 15 16 17 18 19 20 20 19 18 17 16 16 17
14 13 14 14 15 15 16 16 16 16 16 16 15 16 16 17 17 17 17 16 14 13 13 13 13 13 13 13 13 14 14 15 16 17 18 18 18 18 17 16 16 16 17
16 15 15 15 16 16 17 17 18 18 18 17 17 16 16 16 17 18 18 17 15 14 14 14 14 14 14 14 14 14 14 14 14 14 16 17 17 17 16 15 15 15 16
18 18 17 16 17 18 18 18 19 19 19 18 18 18 17 17 18 18 19 18 17 15 15 15 15 15 15 15 15 14 14 13 13 13 14 16 17 17 16 15 14 13 14
19 19 19 19 18 19 19 19 19 20 20 19 19 19 20 19 19 19 20 20 19 17 16 15 16 16 16 16 16 15 14 13 13 12 13 15 16 17 16 15 15 14 14
21 20 20 21 20 20 20 20 21 21 21 20 19 21 22 22 22 22 22 22 20 19 18 16 17 18 18 18 17 16 15 13 12 11 11 13 14 14 15 15 15 14 14
21 21 21 21 21 21 22 21 21 22 22 21 22 22 23 23 24 24 24 24 23 22 20 19 18 19 20 20 20 18 16 14 12 10 10 11 12 12 13 14 14 14 14
22 21 21 21 21 22 22 22 22 22 23 23 23 24 24 25 26 26 25 25 25 23 21 21 21 21 21 21 21 20 18 15 12 11 9 9 10 11 12 13 14 15 15
23 22 21 21 21 21 22 22 23 23 23 24 24 25 26 27 27 27 26 27 26 26 24 24 24 23 22 21 22 22 20 18 15 12 11 9 8 9 10 11 13 15 16
23 22 21 20 20 21 21 22 22 23 23 24 25 26 27 27 27 27 27 27 27 27 27 27 25 25 23 22 22 22 22 21 19 16 14 12 10 9 9 9 11 13 15
22 21 20 20 20 21 21 21 22 23 24 25 26 27 27 27 26 26 26 26 27 28 28 27 25 25 23 23 23 23 23 23 23 20 17 15 13 11 11 10 10 11 13
Wind_Direction
350 3 12 13 11 11 12 15 16 15 16 15 11 8 357 346 336 327 313 299 284 272 262 250 234 225 216 210 207 202 195 181 158 143 144 156 174 192 206 212 216 216 213
289 337 359 5 3 3 3 6 12 13 12 9 6 1 352 345 340 334 327 321 310 297 285 261 226 217 211 210 207 205 203 200 186 172 165 159 156 175 201 210 213 216 214
254 304 345 356 358 358 358 1 6 10 8 2 356 351 345 338 336 336 334 333 332 325 318 294 202 204 207 209 208 207 210 211 207 197 187 183 172 163 171 189 204 212 214
246 284 326 346 352 355 357 359 4 7 5 358 350 340 335 331 329 331 335 335 333 331 340 346 178 196 202 207 208 210 216 220 216 209 203 201 183 169 162 169 193 208 215
246 275 314 335 347 354 358 0 2 3 3 357 345 334 328 325 321 322 327 329 333 332 344 14 130 181 193 202 208 213 220 226 223 215 210 208 191 179 171 168 175 192 206
250 268 301 325 344 355 0 3 3 3 1 356 345 331 323 320 313 308 311 316 322 324 329 348 126 171 192 201 209 215 221 227 223 217 214 209 199 189 195 195 181 182 199
250 261 284 316 338 352 0 5 4 1 359 353 343 332 323 317 311 300 295 300 305 302 296 279 216 187 185 198 206 214 219 219 218 214 211 208 202 193 203 218 222 224 217
249 254 271 304 328 346 357 2 3 359 355 351 344 335 327 321 315 303 289 288 294 290 276 255 232 216 205 200 203 209 212 213 214 214 212 210 204 195 214 238 243 241 236
247 248 263 293 318 339 351 358 359 358 353 347 343 336 330 325 319 308 292 282 284 286 273 255 238 227 221 217 214 214 215 213 210 212 214 214 215 209 230 257 261 252 246
242 244 261 287 308 328 343 353 357 356 351 344 340 336 331 327 320 311 298 284 279 281 274 259 244 233 229 227 225 224 222 220 216 218 221 224 234 239 248 261 267 262 254
240 245 261 282 300 317 332 343 350 351 349 343 337 332 329 326 320 314 305 291 279 276 273 264 250 240 234 232 232 231 230 228 226 226 228 233 240 246 252 258 262 259 253
245 248 262 280 295 306 319 330 339 343 342 340 335 329 326 323 320 317 312 299 283 275 272 266 255 246 241 237 236 234 233 232 232 231 232 237 244 250 253 257 258 254 246
257 260 266 278 290 301 309 318 327 333 335 336 334 330 327 323 320 319 317 305 289 276 271 265 257 249 245 241 238 238 236 235 236 237 238 241 246 250 253 254 254 250 241
264 268 274 280 288 297 304 311 317 326 331 334 335 333 328 325 321 319 318 308 295 280 271 265 258 249 245 243 241 241 241 240 240 241 242 244 247 250 253 255 254 246 236
269 273 279 284 289 295 301 307 313 319 325 330 332 333 328 324 321 319 318 311 299 284 274 268 259 248 246 248 245 244 246 246 245 244 244 246 248 250 254 257 254 244 234
273 276 282 286 290 294 299 304 309 314 318 323 329 331 328 325 322 320 318 313 302 288 277 269 260 250 248 249 249 248 248 250 249 248 246 246 247 250 254 254 251 241 231
281 282 287 291 294 297 299 302 306 312 315 315 321 326 325 323 321 319 317 312 304 292 279 269 260 252 249 249 251 250 250 253 254 250 246 245 246 247 248 247 244 237 230
289 289 292 295 297 300 300 301 305 310 312 312 311 316 315 315 315 314 312 309 303 294 281 268 259 253 249 247 249 251 252 255 256 253 247 242 242 243 245 243 238 231 227
292 292 294 297 299 301 300 301 303 307 309 308 304 304 305 304 306 307 306 304 302 294 284 271 259 254 249 246 246 250 254 259 260 255 248 244 244 246 245 240 234 228 226
288 289 293 297 299 300 301 302 302 304 305 304 297 299 297 296 299 299 299 299 298 291 283 273 260 253 248 244 244 248 254 260 262 258 250 246 246 246 243 239 234 231 230
284 285 289 294 296 299 300 301 301 301 301 299 295 296 294 293 294 294 292 292 293 289 281 272 262 254 248 242 242 245 250 255 260 258 251 247 245 242 239 237 235 235 234
280 282 285 290 294 297 299 300 299 298 299 298 296 294 293 290 289 289 288 286 286 286 278 273 266 258 249 240 239 241 243 246 252 253 249 245 241 237 234 232 232 233 235
275 278 282 286 291 294 296 297 297 296 296 296 295 293 291 289 288 286 284 281 280 279 276 272 268 264 254 242 236 236 235 236 242 245 245 242 238 234 230 227 226 228 231
269 273 278 284 290 293 295 295 296 296 296 296 296 294 291 289 286 284 281 277 274 272 271 272 270 268 262 249 239 234 233 231 232 237 239 239 237 233 229 227 225 226 230
265 270 276 282 288 292 294 295 296 296 296 297 296 294 291 288 285 282 277 272 270 269 268 269 270 268 264 256 247 237 232 229 229 232 234 235 235 234 230 228 227 227 231
263 270 276 283 289 292 294 294 296 296 297 297 297 294 291 288 285 281 276 271 267 266 265 264 266 265 263 263 257 246 236 230 229 229 232 233 235 236 235 232 231 230 232